Showing default

ORBCOMM FM 107, 40087

Orbit data source: Space-Track

ORBCOMM FM 107, 40087 is a payload satellite owned by Orbcomm (US) in LEO that was launched on Mon, 14 Jul 2014 UTC via an FALCON 9 launch vehicle from the Air Force Eastern Test Range (AFETR). Payload-class satellites include a variety of spacecraft equipped with specific instruments for various scientific and technological missions. These include communications satellites like Starlink; space stations such as the ISS; scientific satellites like the Hubble; Earth observation satellites from companies like Planet Labs, Umbra, and HawkEye 360; GPS; miniature CubeSats for education and research; and military/defense satellites.

Loading next visibility...
Identifier
40087, 2014-040B
Orbit
LEO
Country
Flag of USUS / ORB
Related business
Manufacturer
SNC Louisville
Mission
Non-operational Commercial Communications
Bus & Motor
SN-100A, Unknown motor
Mass
172 kg wet, 158 kg dry
Launch date (UTC)
2014-07-14 (12 years ago)
Launch vehicle
FALCON 9
Launch site
Air Force Eastern Test Range (AFETR)
Object type
Payload
Rocket body
Debris
Shape & HBR
Box + 1 Pan + 1 Ant, 5.3 m
Radar Cross Section
2.222 m², Medium (>0.1 m² and < 1m²)

Expand to show TLE details & history
Last TLE update: 17 hours ago

TLE from 17 hours ago
0 ORBCOMM FM 107
1 40087U 14040B   26177.90004067  .00000415  00000-0  12370-3 0  9993
2 40087  47.0056  46.3597 0001032 221.7814 138.2993 14.58945276635840
Epoch: 2026-06-26T21:36Z
TLE epoch observation values (Epoch: 2026-06-26T21:36:03.513Z)
Latitude
-0.00005°
Longitude
167.3231°
Altitude
697.343 km
Speed
7.509 km/s
True Right ascension
03h 05m 26s
True Declination
0° 00' 00"
Sunlit
Object was in daylight at epoch
Visualization orbit readout
Latitude
Unknown
Longitude
Unknown
Altitude
Unknown
Speed
Unknown
Apparent Right ascension
Unknown
Apparent Declination
Unknown
Sunlit
N/A
Visualization observer readout
Local Sidereal Time
01:58:38
Azimuth
Unknown
Elevation
Unknown
Doppler factor
Unknown
Orbital elements
Apogee altitude
698.546 km
Perigee altitude
697.086 km
Semi-major axis
7,075.953 km
Eccentricity
0.0001
Inclination
47.0056°
RAAN
46.3597°
Arg. of periapsis
221.7814°
True anomaly
138.30717°
Mean anomaly
138.2993°
Eccentric anomaly
138.30323°
Mean motion
3.64641 °/min
Orbital period
98.73 mins
BSTAR
0.0001237
Loading maneuver chart data...
Computing Atmospheric mass density...
Loading historical data...
Loading historical data...
Loading historical data...
Loading historical data...
Loading historical data...
Loading historical data...
Loading historical data...

Documentation

Showing up to 5 results
|